Weather in Bryce Canyon National Park

United States     37°37′47″N   112°09′55″W
temp.,
°C
wind,
m/s
gust,
m/s
humid.,
%
clouds,
%
prec.,
mm/h
press.,
hPa
HPBL,
m
25 may, wed
wed2500:00+5nnw11405 0.0 101610
03:00+4nnw11425 0.0 101710
06:00+3nnw114499 0.0 101811
09:00+11nnw24284 0.0 1017478
12:00+18nw34220 0.0 10141542
15:00+22nw67180 0.0 10122624
18:00+21nw77150 0.0 10112274
21:00+13nnw33260 0.0 101421
26 may, thu
thu2600:00+9nnw11340 0.0 101610
03:00+8wnw00438 0.0 101510
06:00+7nw00445 0.0 101610
09:00+18s12205 0.0 1015365
12:00+23s451598 0.0 10133315
15:00+24sw861474 0.0 10113787
18:00+23sw87155 0.0 10103160
21:00+15wsw33255 0.0 101213
27 may, fri
fri2700:00+12wsw392433 0.0 1016150
03:00+9sw123230 0.0 101616
06:00+8sse22435 0.0 101610
09:00+17sw57294 0.0 1014779
12:00+20sw81021100 0.0 10122332
15:00+23sw11121529 0.0 10103477
18:00+20wsw111315100 0.0 10092835
21:00+15sw6122059 0.0 1010331
28 may, sat
sat2800:00+13sw41022100 0.0 1011227
03:00+10sw3329100 0.0 101033
06:00+9ssw4833100 0.0 1010132
09:00+16ssw8122544 0.0 10071412
12:00+19sw1113214 0.0 10042102
15:00+20sw13142387 0.0 10022380
18:00+18sw12132782 0.0 10002594
21:00+15sw10173524 0.0 9991661
29 may, sun
sun2900:00+7nw35775 0.0 1003100
03:00+6nw228782 0.0 100236
06:00+4wnw11915 0.0 100110
09:00+11w511363 0.1 10002034
12:00+14wnw10141983 0.1 9983283
15:00+12wnw10112465 0.0 9982383
18:00+9wnw9122884 0.1 9982002
21:00+4nw57452 0.0 1003201